Regional Weather Roundup
Issued by NWS

Home | Current Version | Previous Version | Graphics & Text | Print | Product List | Glossary On
Versions: 1 2 3 4 5 6 7 8 9 10 11 12 13 14 15 16 17 18 19 20 21 22 23 24 25 26 27 28 29 30 31 32 33 34 35 36 37 38 39 40 41 42 43 44 45 46 47 48 49 50
000
ASUS45 KTFX 301704
RWRMT
MONTANA REGIONAL WEATHER ROUNDUP
NATIONAL WEATHER SERVICE GREAT FALLS MT
1100 AM MDT SUN AUG 30 2015

NOTE: "FAIR" INDICATES FEW OR NO CLOUDS BELOW 12000 FEET WITH NO
SIGNIFICANT WEATHER AND/OR OBSTRUCTIONS TO VISIBILITY.

MTZ001>007-043-301800-
WEST OF THE DIVIDE

CITY           SKY/WX    TMP DP  RH WIND       PRES   REMARKS
KALISPELL      MOSUNNY   66  49  54 S13       29.85F
MISSOULA       CLOUDY    64  49  57 CALM      29.91S HAZE
BUTTE          MOSUNNY   67  39  35 S14G21    29.97F
MULLAN PASS    PTSUNNY   52  40  63 VRB5      29.96S
DEER LODGE       N/A     64  48  55 NE6       29.97F
EUREKA           N/A     61  46  59 SE8       29.83S
HAMILTON         N/A     63  52  67 SW3       29.92S
LIBBY            N/A     61  46  59 W6        29.83S
$$

MTZ008-052>055-301800-
SOUTHWEST MONTANA

CITY           SKY/WX    TMP DP  RH WIND       PRES   REMARKS
BOZEMAN        SUNNY     70  49  47 S5        29.93F
DILLON         SUNNY     71  43  36 W16       29.96F
W YELLOWSTONE  CLOUDY    64  48  55 S13G20    30.10S
$$

MTZ009-010-012-014-046-048-049-054-301800-
EAST SLOPES AND CENTRAL MONTANA

CITY           SKY/WX    TMP DP  RH WIND       PRES   REMARKS
CUT BANK       SUNNY     68  36  30 SW40G48   29.79F
GREAT FALLS    CLOUDY    70  51  51 SW15      29.83S HAZE
HELENA         SUNNY     72  48  42 N6        29.87S
$$

MTZ011-013-016-021-045-047-050-051-301800-
NORTH CENTRAL MONTANA

CITY           SKY/WX    TMP DP  RH WIND       PRES   REMARKS
HAVRE          CLOUDY    68  52  56 MISG      29.79R
LEWISTOWN      CLOUDY    64  55  72 SE7       29.88F
N BAR RANCH    PTSUNNY   61  54  77 CALM      29.92F
CHINOOK          N/A     64  55  72 CALM      29.79F
FORT BENTON      N/A     66  54  63 SW6       29.81S
$$

MTZ017>020-022>027-061-062-301800-
NORTHEAST MONTANA

CITY           SKY/WX    TMP DP  RH WIND       PRES   REMARKS
GLASGOW        PTSUNNY   71  49  45 NW14G24   29.83R
JORDAN           N/A     72  50  45 NW30G43   29.87R
SIDNEY         CLOUDY    81  54  39 N9        29.65R
WOLF POINT     CLOUDY    87  50  27 W18G28    29.73R
PLENTYWOOD       N/A     79  45  29 NW10G16   29.70R
POPLAR           N/A     82  45  26 N17G24    29.67R
$$

MTZ028>42-056>058-301800-
SOUTHCENTRAL AND SOUTHEAST MONTANA

CITY           SKY/WX    TMP DP  RH WIND       PRES   REMARKS
BAKER          PTSUNNY   84  45  25 W12G24    29.76R
BILLINGS       PTSUNNY   73  47  39 N21G31    29.92R
LIVINGSTON     MOSUNNY   70  50  49 N5        29.94R
MILES CITY     CLOUDY    76  51  41 W16       29.82R
FORSYTH          N/A     75  48  38 NW16G25   29.82R
$$

REGIONAL REPORTS...DAKOTAS

CITY           SKY/WX    TMP DP  RH WIND       PRES   REMARKS
WILLISTON      PTSUNNY   83  51  33 N17       29.65F HAZE
MINOT          PTSUNNY   87  58  37 SE8       29.63F
DICKINSON      PTSUNNY   88  44  21 SW9G18    29.69F
BISMARCK       PTSUNNY   82  59  45 SE10      29.70F
GRAND FORKS    MOSUNNY   76  66  71 S15       29.75F
FARGO          SUNNY     78  65  63 SE16      29.81F
BUFFALO SD       N/A     87  45  23 W14       29.72R
RAPID CITY     MOSUNNY   84  56  38 S12       29.82S
$$

REGIONAL REPORTS...WYOMING/IDAHO/WASHINGTON

CITY           SKY/WX    TMP DP  RH WIND       PRES   REMARKS
GILLETTE       PTSUNNY   88  41  19 VRB3      29.89F
SHERIDAN       PTSUNNY   74  51  44 CALM      29.85S
BUFFALO WY     PTSUNNY   88  40  18 SE9       29.94S
CODY           PTSUNNY   75  48  38 N21       29.97S
YELLOWSTONE LA   N/A     62  43  49 VRB6      30.20S
IDAHO FALLS    SUNNY     71  48  43 SW18      30.04S
SALMON         MOSUNNY   73  39  29 S14G22    29.90F
BOISE          SUNNY     72  41  32 W7        30.01R
SPOKANE        CLOUDY    56  51  84 S13       29.87S
$$

REGIONAL REPORTS...ALBERTA

CITY           SKY/WX    TMP DP  RH WIND       PRES   REMARKS
$$

REGIONAL REPORTS...SASKATCHEWAN

CITY           SKY/WX    TMP DP  RH WIND       PRES   REMARKS
$$


USA.gov is the U.S. government's official web portal to all federal, state and local government web resources and services.